Location: Milo
(50.5667°N, 112.8833°W)
Time: 08:39:22
(UTC+00:00)

N. Korean satellite - Pass Details

Date: 04 December 2021
Orbit: 446 x 491 km, 97.3° (Epoch: 18 January)

Event Time Altitude Azimuth Distance (km) Brightness Sun altitude
Rises 14:07:20 0° 358° (N) 2,475 9.9 -10.2°
Reaches altitude 10° 14:09:59 10° 335° (NNW) 1,591 8.7 -9.8°
Maximum altitude 14:12:03 15° 298° (WNW) 1,286 8.0 -9.5°
Drops below altitude 10° 14:14:06 10° 260° (W) 1,578 8.7 -9.2°
Sets 14:16:47 0° 237° (WSW) 2,469 9.8 -8.8°
